Location: Anaheim
(33.8350°N, 117.9140°W)
Time: 07:14:20
(UTC-07:00)

Amateur Radio Satellites - All Passes

Search period start: 31 October 2014 06:44
Search period end: 01 November 2014 06:44
Location: Anaheim, 33.8350°N, 117.9140°W

Satellite Date Start Highest point End Downlink Frequencies (MHz)
Time Altitude Azimuth
Uosat F 31 Oct 06:44:32 06:47:11 14° 295° (WNW) 06:49:50 435.120 FM
Saudisat 1A 31 Oct 06:59:42 07:02:35 17° 310° (NW) 07:05:29 436.775 MHz
PANSAT 31 Oct 07:02:07 07:05:34 31° 188° (S) 07:08:59 not established
JAS-2 31 Oct 07:15:24 07:22:39 42° 291° (WNW) 07:29:38 435.800 - 435.900 CW/SSB, 435.910 FM
SO-67 31 Oct 07:28:31 07:31:41 33° 98° (E) 07:34:49 435.3500 MHz FM
AO-7 31 Oct 07:45:26 07:47:45 11° 309° (NW) 07:50:03 29.400 - 29.500 MHz
STRAND 1 31 Oct 08:09:54 08:13:22 18° 266° (W) 08:16:51 ?
MaSat-1 31 Oct 08:23:28 08:25:45 41° 250° (WSW) 08:27:58 437.345 MHz
HO-68 31 Oct 08:29:57 08:34:18 17° 93° (E) 08:38:38 435.675 MHz FM
PANSAT 31 Oct 08:42:56 08:45:13 15° 200° (SSW) 08:47:30 not established
RS-15 31 Oct 08:50:12 08:58:30 24° 257° (WSW) 09:07:07 29.354 - 29.394 USB, Beacon 29.352 USB
SO-67 31 Oct 09:04:03 09:04:15 10° 291° (WNW) 09:04:28 435.3500 MHz FM
ISS 31 Oct 09:09:25 09:12:20 29° 131° (SE) 09:15:16 145.800 FM
KITSAT 1 31 Oct 09:32:53 09:39:00 24° 104° (ESE) 09:45:07 435.175 FM
UKube-1 31 Oct 10:09:04 10:13:11 40° 99° (E) 10:17:17 145.840 MHz, 145.915 MHz
HO-68 31 Oct 10:15:21 10:22:31 73° 288° (WNW) 10:29:39 435.675 MHz FM
PCSat 31 Oct 10:17:45 10:18:12 10° 46° (NE) 10:18:38 145.825 MHz
ZACube-1 31 Oct 10:18:40 10:21:41 19° 95° (E) 10:24:39 437.345 MHz
Oscar 11 31 Oct 10:43:57 10:48:16 74° 284° (WNW) 10:52:33 145.825 FM, Beacon 2401.500 USB
ISS 31 Oct 10:46:21 10:49:01 22° 325° (NW) 10:51:42 145.800 FM
SO-50 31 Oct 10:47:11 10:51:33 57° 115° (ESE) 10:56:02 436.795 FM
FUNcube-1 31 Oct 11:00:37 11:04:46 66° 101° (E) 11:08:52 145.950 - 145.970 MHz USB
KITSAT 1 31 Oct 11:25:46 11:33:44 62° 300° (WNW) 11:41:45 435.175 FM
UOSAT-12 31 Oct 11:33:29 11:35:48 14° 107° (ESE) 11:38:09 437.025 FM, 437.400 FM
Sapphire 31 Oct 11:35:32 11:40:43 44° 60° (ENE) 11:45:52 437.095 MHz 1200 baud AX-25 AFSK
UKube-1 31 Oct 11:46:34 11:48:59 15° 293° (WNW) 11:51:24 145.840 MHz, 145.915 MHz
ZACube-1 31 Oct 11:54:33 11:58:02 26° 289° (WNW) 12:01:29 437.345 MHz
PCSat 31 Oct 11:57:03 12:02:29 77° 64° (ENE) 12:07:53 145.825 MHz
HO-68 31 Oct 12:06:59 12:08:58 11° 305° (NW) 12:10:57 435.675 MHz FM
Oscar 16 31 Oct 12:13:06 12:13:51 10° 63° (ENE) 12:14:36 437.025 USB, Beacon 2401.1428
SO-50 31 Oct 12:29:57 12:32:28 15° 312° (NW) 12:35:02 436.795 FM
AO-Echo 31 Oct 12:47:14 12:48:34 11° 63° (ENE) 12:49:55 ?
ITAMSAT 1 31 Oct 12:54:19 12:54:49 10° 62° (ENE) 12:55:19 435.822 SSB
Oscar 19 31 Oct 13:00:57 13:05:31 33° 70° (ENE) 13:10:04 437.125 CW, 437.150 USB
UOSAT-12 31 Oct 13:10:57 13:15:26 51° 302° (WNW) 13:20:02 437.025 FM, 437.400 FM
Sapphire 31 Oct 13:19:53 13:23:45 20° 255° (WSW) 13:27:37 437.095 MHz 1200 baud AX-25 AFSK
JAS-1B 31 Oct 13:24:11 13:29:49 52° 72° (ENE) 13:35:19 435.800 - 435.900 CW/SSB
KITSAT 1 31 Oct 13:27:13 13:30:52 13° 322° (NW) 13:34:32 435.175 FM
AO-27 31 Oct 13:37:28 13:41:59 31° 69° (ENE) 13:46:30 436.795 MHz FM
PCSat 31 Oct 13:43:58 13:45:09 11° 258° (WSW) 13:46:20 145.825 MHz
Oscar 16 31 Oct 13:47:19 13:52:28 80° 257° (WSW) 13:57:38 437.025 USB, Beacon 2401.1428
Saudisat 1A 31 Oct 13:50:18 13:52:32 14° 48° (NE) 13:54:45 436.775 MHz
Gurwin Techsat 1B 31 Oct 13:53:56 13:57:58 23° 67° (ENE) 14:02:01 435.225 FM
TMSAT-1 31 Oct 14:00:43 14:04:21 19° 66° (ENE) 14:07:59 436.925 FM
Uribyol 2 31 Oct 14:20:19 14:25:33 87° 76° (ENE) 14:30:48 436.500 FM
AO-Echo 31 Oct 14:21:39 14:26:35 74° 258° (WSW) 14:31:42 ?
ITAMSAT 1 31 Oct 14:28:19 14:33:32 84° 257° (WSW) 14:38:47 435.822 SSB
Oscar 19 31 Oct 14:40:45 14:44:50 24° 264° (W) 14:48:55 437.125 CW, 437.150 USB
AO-7 31 Oct 14:52:36 14:58:49 25° 59° (ENE) 15:05:03 29.400 - 29.500 MHz
AO-27 31 Oct 15:17:04 15:21:24 27° 263° (W) 15:25:47 436.795 MHz FM
JAS-1B 31 Oct 15:17:39 15:20:50 15° 266° (W) 15:23:59 435.800 - 435.900 CW/SSB
Saudisat 1A 31 Oct 15:28:06 15:32:27 59° 244° (WSW) 15:36:46 436.775 MHz
Gurwin Techsat 1B 31 Oct 15:32:45 15:37:39 38° 262° (W) 15:42:34 435.225 FM
TMSAT-1 31 Oct 15:38:49 15:43:52 45° 261° (W) 15:48:57 436.925 FM
ISS 31 Oct 15:42:46 15:43:23 10° 26° (NNE) 15:43:59 145.800 FM
Uosat F 31 Oct 16:13:21 16:18:12 51° 73° (ENE) 16:23:05 435.120 FM
AO-7 31 Oct 16:42:41 16:50:53 67° 255° (WSW) 16:59:08 29.400 - 29.500 MHz
ISS 31 Oct 17:17:14 17:20:35 72° 43° (NE) 17:23:53 145.800 FM
Hamsat 31 Oct 17:17:16 17:20:45 26° 72° (ENE) 17:24:15 145.90 MHz
JAS-2 31 Oct 17:22:11 17:28:13 64° 73° (ENE) 17:35:06 435.800 - 435.900 CW/SSB, 435.910 FM
Oscar 10/S400 31 Oct 17:42:18 18:04:08 73° 184° (S) 03:31:07 145.825 - 145.975 CW/USB, Beacon 145.810 USB
Uosat F 31 Oct 17:54:31 17:57:13 15° 267° (W) 17:59:56 435.120 FM
OPAL 31 Oct 18:25:35 18:30:32 77° 286° (WNW) 18:35:28 ?
STRAND 1 31 Oct 18:44:37 18:48:20 20° 95° (E) 18:52:01 ?
RS-15 31 Oct 18:50:58 18:54:38 12° 98° (E) 18:58:16 29.354 - 29.394 USB, Beacon 29.352 USB
Hamsat 31 Oct 18:53:37 18:56:39 19° 265° (W) 18:59:41 145.90 MHz
JAS-2 31 Oct 19:10:02 19:13:55 17° 271° (W) 19:18:06 435.800 - 435.900 CW/SSB, 435.910 FM
SO-50 31 Oct 19:22:57 19:26:38 21° 51° (NE) 19:30:19 436.795 FM
KITSAT 1 31 Oct 19:23:37 19:30:51 34° 53° (NE) 19:38:01 435.175 FM
SO-67 31 Oct 19:29:33 19:32:54 55° 260° (W) 19:36:17 435.3500 MHz FM
STRAND 1 31 Oct 20:22:50 20:27:36 39° 289° (WNW) 20:32:19 ?
HO-68 31 Oct 20:39:10 20:46:08 58° 70° (ENE) 20:53:09 435.675 MHz FM
RS-15 31 Oct 20:54:04 21:05:04 75° 114° (ESE) 21:15:56 29.354 - 29.394 USB, Beacon 29.352 USB
UKube-1 31 Oct 21:01:17 21:04:39 22° 69° (ENE) 21:08:01 145.840 MHz, 145.915 MHz
SO-50 31 Oct 21:02:45 21:07:20 42° 246° (WSW) 21:11:56 436.795 FM
ZACube-1 31 Oct 21:13:05 21:14:36 12° 66° (ENE) 21:16:08 437.345 MHz
KITSAT 1 31 Oct 21:18:43 21:26:22 49° 250° (WSW) 21:33:59 435.175 FM
Oscar 11 31 Oct 21:34:58 21:39:08 51° 75° (ENE) 21:43:19 145.825 FM, Beacon 2401.500 USB
UOSAT-12 31 Oct 21:44:14 21:48:46 45° 57° (ENE) 21:53:11 437.025 FM, 437.400 FM
FUNcube-1 31 Oct 21:52:59 21:57:03 33° 73° (ENE) 22:01:04 145.950 - 145.970 MHz USB
MaSat-1 31 Oct 21:53:34 21:57:36 86° 113° (ESE) 22:01:14 437.345 MHz
HO-68 31 Oct 22:28:50 22:34:08 22° 265° (W) 22:39:29 435.675 MHz FM
UKube-1 31 Oct 22:37:02 22:40:40 26° 263° (W) 22:44:19 145.840 MHz, 145.915 MHz
ZACube-1 31 Oct 22:46:01 22:50:30 56° 260° (W) 22:54:54 437.345 MHz
AO-40 31 Oct 22:51:54 23:59:38 17° 241° (WSW) 01:47:14 Beacon 2401.320
RS-15 31 Oct 23:09:15 23:18:24 30° 317° (NW) 23:27:36 29.354 - 29.394 USB, Beacon 29.352 USB
Oscar 11 31 Oct 23:14:37 23:15:33 11° 268° (W) 23:16:29 145.825 FM, Beacon 2401.500 USB
UOSAT-12 31 Oct 23:25:42 23:28:28 16° 252° (WSW) 23:31:13 437.025 FM, 437.400 FM
FUNcube-1 31 Oct 23:30:19 23:33:26 18° 265° (W) 23:36:32 145.950 - 145.970 MHz USB
PCSat 01 Nov 00:53:49 00:57:11 17° 104° (ESE) 01:00:34 145.825 MHz
JAS-1B 01 Nov 01:10:55 01:16:44 23° 96° (E) 01:23:12 435.800 - 435.900 CW/SSB
Oscar 19 01 Nov 01:17:31 01:20:34 16° 94° (E) 01:23:36 437.125 CW, 437.150 USB
RS-15 01 Nov 01:34:53 01:36:17 10° 351° (N) 01:37:42 29.354 - 29.394 USB, Beacon 29.352 USB
AO-27 01 Nov 01:55:40 01:58:30 15° 93° (E) 02:01:19 436.795 MHz FM
Oscar 16 01 Nov 02:03:06 02:08:04 50° 100° (E) 02:13:01 437.025 USB, Beacon 2401.1428
Sapphire 01 Nov 02:13:03 02:18:27 89° 295° (WNW) 02:23:54 437.095 MHz 1200 baud AX-25 AFSK
Gurwin Techsat 1B 01 Nov 02:15:46 02:17:25 11° 91° (E) 02:19:04 435.225 FM
AO-Echo 01 Nov 02:32:51 02:38:02 51° 100° (E) 02:43:06 ?
PCSat 01 Nov 02:34:51 02:40:06 52° 299° (WNW) 02:45:24 145.825 MHz
Uribyol 2 01 Nov 02:37:19 02:42:15 43° 99° (E) 02:47:07 436.500 FM
ITAMSAT 1 01 Nov 02:45:22 02:50:25 48° 100° (E) 02:55:25 435.822 SSB
Oscar 19 01 Nov 02:55:11 03:00:06 48° 287° (WNW) 03:05:01 437.125 CW, 437.150 USB
JAS-1B 01 Nov 03:00:03 03:07:21 66° 287° (WNW) 03:16:04 435.800 - 435.900 CW/SSB
PANSAT 01 Nov 03:17:29 03:20:25 21° 164° (SSE) 03:23:21 not established
AO-27 01 Nov 03:33:11 03:38:16 54° 287° (WNW) 03:43:19 436.795 MHz FM
Oscar 16 01 Nov 03:43:51 03:46:58 17° 294° (WNW) 03:50:06 437.025 USB, Beacon 2401.1428
RS-15 01 Nov 03:49:04 03:55:51 17° 30° (NNE) 04:02:44 29.354 - 29.394 USB, Beacon 29.352 USB
Gurwin Techsat 1B 01 Nov 03:52:30 03:57:48 69° 285° (WNW) 04:03:03 435.225 FM
TMSAT-1 01 Nov 03:58:22 04:03:41 83° 284° (WNW) 04:08:58 436.925 FM
Sapphire 01 Nov 04:00:39 04:02:36 12° 312° (NW) 04:04:34 437.095 MHz 1200 baud AX-25 AFSK
OPAL 01 Nov 04:01:17 04:03:27 13° 62° (ENE) 04:05:36 ?
AO-Echo 01 Nov 04:12:56 04:16:18 17° 294° (WNW) 04:19:38 ?
Uribyol 2 01 Nov 04:17:44 04:21:21 19° 294° (WNW) 04:24:57 436.500 FM
Uosat F 01 Nov 04:25:46 04:29:37 22° 96° (E) 04:33:26 435.120 FM
ITAMSAT 1 01 Nov 04:26:08 04:29:28 17° 294° (WNW) 04:32:48 435.822 SSB
JAS-2 01 Nov 04:38:58 04:42:07 13° 87° (E) 04:45:13 435.800 - 435.900 CW/SSB, 435.910 FM
AO-7 01 Nov 04:48:36 04:56:45 55° 103° (ESE) 05:04:52 29.400 - 29.500 MHz
PANSAT 01 Nov 04:56:37 05:00:09 35° 176° (S) 05:03:41 not established
Saudisat 1A 01 Nov 05:30:26 05:34:48 89° 300° (WNW) 05:39:13 436.775 MHz
OPAL 01 Nov 05:36:38 05:41:44 67° 256° (WSW) 05:46:47 ?
STRAND 1 01 Nov 05:57:06 06:00:47 20° 67° (ENE) 06:04:29 ?
RS-15 01 Nov 06:00:02 06:11:08 61° 57° (ENE) 06:22:41 29.354 - 29.394 USB, Beacon 29.352 USB
Uosat F 01 Nov 06:03:52 06:08:25 35° 289° (WNW) 06:12:56 435.120 FM
JAS-2 01 Nov 06:20:08 06:28:03 84° 103° (ESE) 06:35:32 435.800 - 435.900 CW/SSB, 435.910 FM
PANSAT 01 Nov 06:36:33 06:39:58 31° 189° (S) 06:43:23 not established
